Iowa City, IA

6:39 AM CDT on April 07, 2020 (GMT -0500)
Iowa City Municipal

Weather History for KIOW - September, 2019

Change the Weather History Date:

Saturday, September 28, 2019

  Actual Average Record
Temperature  
Mean Temperature 62 °F -  
Max Temperature 67 °F - 96 °F (1953)
Min Temperature 56 °F - 31 °F (1961)
Degree Days  
Heating Degree Days 3    
Month to date heating degree days 5  
Growing Degree Days 12 (Base 50)    
Moisture  
Dew Point 58 °F    
Average Humidity 83    
Maximum Humidity 87    
Minimum Humidity 78    
Precipitation  
Precipitation 1.36 in - 1.36 in (2019)
Month to date precipitation 7.32  
Year to date precipitation 36.80  
Sea Level Pressure  
Sea Level Pressure 30.08 in    
Wind  
Wind Speed 11 mph (NE)    
Max Wind Speed 18 mph    
Max Gust Speed 30 mph    
Visibility 8 miles    
Events Rain , Thunderstorm    
T = Trace of Precipitation, MM = Missing Value Source: NWS Daily Summary

Daily Weather History Graph

Daily Weather History Graph

Search for Another Location

Airport or City:

Astronomy

Sep. 28, 2019 Rise Set
Actual Time 6:59 AM CDT 6:53 PM CDT
Civil Twilight 6:31 AM CDT 7:21 PM CDT
Nautical Twilight 5:59 AM CDT 7:53 PM CDT
Astronomical Twilight 5:26 AM CDT 8:25 PM CDT
Moon 6:35 AM CDT (9/28) 7:19 PM CDT (9/28)
Length of Visible Light 12h 49m
Length of Day
11h 53m
Waning Crescent, 0% of the Moon is Illuminated
Sep 28
Waning Crescent
Sep 28
New
Oct 5
First Quarter
Oct 13
Full
Oct 21
Last Quarter

Hourly Weather History & Observations

Time (CDT) Temp. Dew Point Humidity Pressure Visibility Wind Dir Wind Speed Gust Speed Precip Events Conditions
12:52 AM 64.9 °F 61.0 °F 87% 29.85 in 10.0 mi NNE 8.1 mph - N/A   Scattered Clouds
1:52 AM 64.0 °F 60.1 °F 87% 29.86 in 10.0 mi North 11.5 mph - N/A   Partly Cloudy
2:52 AM 64.0 °F 60.1 °F 87% 29.89 in 10.0 mi North 9.2 mph - N/A   Mostly Cloudy
3:20 AM 64.0 °F 60.1 °F 87% 29.92 in 10.0 mi North 8.1 mph - N/A   Overcast
3:52 AM 64.0 °F 59.0 °F 84% 29.92 in 10.0 mi North 8.1 mph - N/A   Overcast
4:52 AM 63.0 °F 57.9 °F 84% 29.96 in 10.0 mi North 11.5 mph - N/A   Overcast
5:52 AM 62.1 °F 55.9 °F 80% 29.96 in 10.0 mi North 12.7 mph - N/A   Mostly Cloudy
6:52 AM 60.1 °F 55.0 °F 83% 29.99 in 10.0 mi North 10.4 mph - N/A   Scattered Clouds
7:52 AM 60.1 °F 55.0 °F 83% 30.01 in 10.0 mi NNE 9.2 mph - N/A   Clear
8:52 AM 61.0 °F 55.0 °F 81% 30.04 in 10.0 mi NE 8.1 mph - N/A   Overcast
9:52 AM 63.0 °F 57.0 °F 81% 30.06 in 10.0 mi NE 11.5 mph - N/A   Overcast
10:00 AM 63.0 °F 57.0 °F 81% 30.07 in 10.0 mi NE 11.5 mph 20.7 mph N/A   Overcast
10:52 AM 64.0 °F 57.9 °F 80% 30.08 in 10.0 mi ENE 5.8 mph - N/A   Overcast
11:52 AM 64.0 °F 59.0 °F 84% 30.10 in 10.0 mi NE 9.2 mph - N/A   Overcast
12:52 PM 66.9 °F 60.1 °F 79% 30.09 in 10.0 mi NE 16.1 mph - N/A   Overcast
1:22 PM 66.9 °F 60.1 °F 79% 30.11 in 10.0 mi NE 11.5 mph - N/A   Overcast
1:52 PM 66.0 °F 59.0 °F 78% 30.10 in 10.0 mi ENE 13.8 mph 23.0 mph N/A   Overcast
2:52 PM 66.0 °F 59.0 °F 78% 30.10 in 10.0 mi NE 10.4 mph - N/A   Overcast
3:52 PM 66.0 °F 59.0 °F 78% 30.09 in 10.0 mi ENE 9.2 mph - N/A   Overcast
4:52 PM 64.9 °F 59.0 °F 81% 30.09 in 10.0 mi East 9.2 mph 20.7 mph N/A   Overcast
5:52 PM 64.0 °F 57.9 °F 80% 30.09 in 10.0 mi ENE 15.0 mph 23.0 mph N/A   Overcast
6:52 PM 63.0 °F 57.0 °F 81% 30.11 in 10.0 mi East 12.7 mph 24.2 mph N/A   Overcast
7:52 PM 62.1 °F 57.0 °F 84% 30.12 in 10.0 mi East 11.5 mph 26.5 mph N/A   Overcast
8:29 PM 61.0 °F 57.9 °F 90% 30.12 in 10.0 mi East 11.5 mph 20.7 mph 0.01 in Rain , Thunderstorm Light Rain
8:42 PM 61.0 °F 57.0 °F 87% 30.15 in 10.0 mi East 6.9 mph 17.3 mph 0.01 in Thunderstorm Thunderstorm
8:52 PM 61.0 °F 57.9 °F 90% 30.17 in 1.5 mi SSW 4.6 mph - 0.22 in Rain , Thunderstorm Heavy Thunderstorms and Rain
9:11 PM 60.1 °F 57.0 °F 90% 30.17 in 1.5 mi East 10.4 mph 26.5 mph 0.37 in Rain , Thunderstorm Heavy Thunderstorms and Rain
9:15 PM 61.0 °F 57.9 °F 90% 30.17 in 2.0 mi East 5.8 mph 17.3 mph 0.43 in Rain , Thunderstorm Heavy Thunderstorms and Rain
9:26 PM 60.1 °F 57.9 °F 93% 30.16 in 2.5 mi NE 11.5 mph - 0.53 in Rain , Thunderstorm Rain
9:33 PM 60.1 °F 57.0 °F 90% 30.16 in 5.0 mi ENE 9.2 mph - 0.55 in Rain , Thunderstorm Rain
9:52 PM 61.0 °F 57.9 °F 90% 30.19 in 8.0 mi Variable 6.9 mph - 0.59 in Rain , Thunderstorm Thunderstorms and Rain
9:58 PM 60.1 °F 57.0 °F 90% 30.16 in 2.5 mi East 10.4 mph - 0.09 in Rain , Thunderstorm Heavy Thunderstorms and Rain
10:07 PM 60.1 °F 57.0 °F 90% 30.15 in 3.0 mi ENE 11.5 mph - 0.15 in Rain , Thunderstorm Heavy Thunderstorms and Rain
10:12 PM 60.1 °F 57.0 °F 90% 30.15 in 4.0 mi NE 8.1 mph - 0.16 in Rain Rain
10:21 PM 60.1 °F 57.0 °F 90% 30.15 in 5.0 mi ENE 8.1 mph - 0.19 in Rain Rain
10:37 PM 59.0 °F 55.9 °F 90% 30.16 in 8.0 mi East 11.5 mph 20.7 mph 0.22 in Rain Light Rain
10:52 PM 59.0 °F 55.0 °F 87% 30.16 in 8.0 mi East 10.4 mph 18.4 mph 0.25 in Rain Rain
11:02 PM 57.9 °F 55.0 °F 90% 30.15 in 4.0 mi East 12.7 mph 20.7 mph 0.06 in Rain Heavy Rain
11:52 PM 57.0 °F 54.0 °F 89% 30.14 in 10.0 mi East 13.8 mph 25.3 mph 0.19 in Rain Light Rain